Saint Cloud, MN

2:41 AM CDT on September 25, 2016 (GMT -0500)
Saint Cloud Regional

Weather History for KSTC - May, 2014

Change the Weather History Date:

Friday, May 16, 2014

  Actual Average Record
Temperature  
Mean Temperature 48 °F 57 °F  
Max Temperature 57 °F 69 °F 94 °F (1934)
Min Temperature 39 °F 44 °F 30 °F (1956)
Degree Days  
Heating Degree Days 17 9  
Month to date heating degree days 226 180  
Since 1 July heating degree days 9458 8347  
Cooling Degree Days 0 1  
Month to date cooling degree days 0 8  
Year to date cooling degree days 0 10  
Moisture  
Dew Point 26 °F    
Average Humidity 48    
Maximum Humidity 70    
Minimum Humidity 26    
Precipitation  
Precipitation 0.00 in 0.09 in 5.00 in (1894)
Month to date precipitation 3.20 1.50  
Year to date precipitation 12.81 6.86  
Snow  
Snow 0.00 in 0.00 in T in (1943)
Month to date snowfall 0.0 0.0  
Since 1 July snowfall 75.5 45.7  
Snow Depth 0.00 in    
Sea Level Pressure  
Sea Level Pressure 30.11 in    
Wind  
Wind Speed 6 mph (NW)    
Max Wind Speed 15 mph    
Max Gust Speed 22 mph    
Visibility 10 miles    
Events      
T = Trace of Precipitation, MM = Missing Value Source: NWS Daily Summary

Daily Weather History Graph

Daily Weather History Graph

Search for Another Location

Airport or City:

Trip Planner

Search our weather history database for the weather conditions in past years. The results will help you decide how hot, cold, wet, or windy it might be!

Date:

Astronomy

May. 16, 2014 Rise Set
Actual Time 5:44 AM CDT 8:41 PM CDT
Civil Twilight 5:09 AM CDT 9:16 PM CDT
Nautical Twilight 4:25 AM CDT 10:01 PM CDT
Astronomical Twilight 3:32 AM CDT 10:54 PM CDT
Moon 10:48 PM CDT (5/16) 7:26 AM CDT (5/16)
Length of Visible Light 16h 06m
Length of Day
14h 57m
Waning Gibbous, 95% of the Moon is Illuminated
May 16
Waning Gibbous
May 21
Last Quarter
May 28
New
Jun 5
First Quarter
Jun 12
Full

Hourly Weather History & Observations

Time (CDT) Temp. Windchill Dew Point Humidity Pressure Visibility Wind Dir Wind Speed Gust Speed Precip Events Conditions
12:53 AM 41.0 °F 39.0 °F 28.9 °F 62% 30.16 in 10.0 mi NW 3.5 mph - N/A   Overcast
1:53 AM 41.0 °F - 28.9 °F 62% 30.15 in 10.0 mi Calm Calm - N/A   Overcast
2:53 AM 39.9 °F - 28.9 °F 65% 30.14 in 10.0 mi Calm Calm - N/A   Overcast
3:53 AM 39.9 °F 36.7 °F 28.9 °F 65% 30.13 in 10.0 mi NW 4.6 mph - N/A   Overcast
4:53 AM 39.0 °F 35.7 °F 30.0 °F 70% 30.14 in 10.0 mi WNW 4.6 mph - N/A   Overcast
5:53 AM 39.0 °F 36.8 °F 28.9 °F 67% 30.14 in 10.0 mi NW 3.5 mph - N/A   Overcast
6:53 AM 39.9 °F 37.8 °F 28.9 °F 65% 30.14 in 10.0 mi NW 3.5 mph - N/A   Overcast
7:53 AM 43.0 °F 39.5 °F 28.9 °F 58% 30.14 in 10.0 mi NNW 5.8 mph - N/A   Overcast
8:53 AM 46.0 °F 43.1 °F 27.0 °F 47% 30.14 in 10.0 mi NNW 5.8 mph - N/A   Overcast
9:53 AM 51.1 °F - 21.9 °F 32% 30.13 in 10.0 mi NW 10.4 mph - N/A   Clear
10:53 AM 52.0 °F - 21.0 °F 30% 30.12 in 10.0 mi North 12.7 mph 18.4 mph N/A   Scattered Clouds
11:53 AM 52.0 °F - 19.0 °F 27% 30.12 in 10.0 mi NNW 8.1 mph - N/A   Overcast
12:53 PM 51.1 °F - 19.0 °F 28% 30.11 in 10.0 mi NW 6.9 mph - N/A   Overcast
1:53 PM 54.0 °F - 21.0 °F 28% 30.10 in 10.0 mi North 4.6 mph - N/A   Overcast
2:53 PM 54.0 °F - 19.9 °F 26% 30.09 in 10.0 mi NNW 8.1 mph - N/A   Overcast
3:53 PM 55.9 °F - 21.0 °F 26% 30.08 in 10.0 mi NNW 9.2 mph - N/A   Mostly Cloudy
4:53 PM 55.9 °F - 23.0 °F 28% 30.08 in 10.0 mi NW 10.4 mph 16.1 mph N/A   Mostly Cloudy
5:53 PM 55.0 °F - 25.0 °F 31% 30.08 in 10.0 mi NNW 8.1 mph - N/A   Overcast
6:53 PM 54.0 °F - 25.0 °F 33% 30.08 in 10.0 mi NW 13.8 mph - N/A   Overcast
7:53 PM 53.1 °F - 27.0 °F 37% 30.09 in 10.0 mi North 4.6 mph - N/A   Overcast
8:53 PM 51.1 °F - 30.0 °F 44% 30.09 in 10.0 mi NW 4.6 mph - N/A   Overcast
9:53 PM 48.0 °F - 32.0 °F 54% 30.09 in 10.0 mi WSW 4.6 mph - N/A   Mostly Cloudy
10:53 PM 44.1 °F 40.8 °F 35.1 °F 71% 30.09 in 10.0 mi WSW 5.8 mph - N/A   Clear
11:53 PM 43.0 °F - 28.9 °F 58% 30.09 in 10.0 mi Calm Calm - N/A   Clear